NOAA-14
1 23455U 94089A   04274.37070178  .00000365  00000-0  21866-3 0  2969
2 23455  99.1299 311.9666 0009405  17.7902 342.3598 14.13493085502791
SICH-1
1 23657U 95046A   04274.87047419  .00000346  00000-0  41648-4 0  2515
2 23657  82.5255 279.9392 0022512 254.5526 105.3203 14.80926259489577
NOAA-15
1 25338U 98030A   04274.24967191  .00000053  00000-0  41332-4 0  7451
2 25338  98.5207 284.4594 0011420  41.6143 318.5904 14.24453855331746
RESURS
1 25394U 98043A   04273.96040626  .00000010  00000-0  22935-4 0 09150
2 25394 098.5729 344.1475 0001555 155.6579 204.4674 14.24024349323410
FENGYUN1
1 25730U 99025A   04274.03578517 -.00000290  00000-0 -13630-3 0  2447
2 25730  98.6052 280.2839 0015333 120.8557 239.4131 14.11777638277806
OKEAN-0
1 25860U 99039A   04273.96148149  .00000131  00000-0  27642-4 0 03061
2 25860 097.7888 304.9153 0001337 044.9757 315.1560 14.73119722279696
NOAA-16
1 26536U 00055A   04274.33896133  .00000094  00000-0  75507-4 0   425
2 26536  98.9740 225.8254 0011439  81.1021 279.1377 14.12157023207382
NOAA-17
1 27453U 02032A   04274.38278436  .00000240  00000-0  12433-3 0   663
2 27453  98.6924 345.4609 0012815  90.3037 269.9605 14.23574738117876
HUBBLE
1 20580U 90037B   04274.02666623  .00000837  00000-0  53693-4 0  1677
2 20580  28.4660 163.4720 0003802  36.5056 323.5785 14.99326023591157
UARS
1 21701U 91063B   04272.73570966 -.00000250  00000-0  57035-6 0 02793
2 21701 056.9791 169.7526 0004970 114.5504 245.6092 15.03624793714163
PO-34
1 25520U 98064B   04274.35118010  .00000874  00000-0  34659-4 0   224
2 25520  28.4617 248.8543 0005584 272.6157  87.3815 15.15759547327115
ISS
1 25544U 98067A   04274.97765046  .00013616  00000-0  12220-3 0  8100
2 25544  51.6355 145.8432 0009771 170.0391  32.0472 15.68576013334931
OO-38
1 26063U 00004C   04274.53028581  .00000033  00000-0  31606-4 0  1730
2 26063 100.2250  80.7714 0037221  66.3510 294.1570 14.35670239245034
NO-45
1 26932U 01043D   04274.29052603 -.00000018  00000-0  25161-4 0  8576
2 26932  67.0586 176.7813 0005607 288.6035  71.4474 14.29443794156656
